map of BJX home
Great Circle Mapper logo
BJX - Airport
Location
City:  León, Guanajuato, México
Near (Alt.):Silao, Guanajuato
Name:Guanajuato International Airport
Old (Alt.):Del Bajío International Airport
ICAO / IATA:MMLO / BJX

Details
Type:Airport (Aerodrome, Airfield)
Use:Public/Civil, International (customs port of entry)
Latitude:20°59'36"N (20.993464)
Longitude:101°28'51"W (-101.480846)
Datum:WGS 1984
Elevation:5956 ft (1815 m)
Runways:1
Longest:11480 × 148 ft (3499 × 45 m), paved

Time
Time Zone:UTC-6 (DST-5)
Local Time:

Weather
METAR:MMLO 252045Z 27002KT 8SM SCT030CB SCT120 BKN200 26/12 A3026 RMK SLP105 57025 901 8/338 HZY PCPCN NE

Related Locations
Nearby:
Farthest:RRG: 11461 mi / 18445 km
Plaine Corail, Rodrigues Island, MU

Find:

   beyond  
but within

Other Information
Maps:
NOTAMs:
Links:
Sources:

  
flag of México   

Sectional Chart

Flight Planning
at skyvector.com

Satellite Image

Google Maps Satellite View

 

Copyright © 2004-2014 Karl L. Swartz. All rights reserved.
The Great Circle Mapper name and logo are trademarks of the Great Circle Mapper.
All other trademarks mentioned herein belong to their respective owners.
Please see credits for attibutions and further copyright information.

  Follow gcmap on Facebook Follow gcmap on Twitter

hCard Microformat

Geo Microformat